496P/Hill (2025)

Japanese version
Home page
Updated on March 26, 2025

---------------------------------------------------------------------

* Profile

Designation 496P/2024 S3
Recovery Date September 26 and October 7, 2024
Magnitude 20.2 mag, 20.2 mag
Recoverer Pan-STARRS 2 telescope (Haleakala), Pan-STARRS 1 telescope (Haleakala)

* Pictures

* Orbital Elements

Epoch 2025 May 5.0 TT = JDT 2460800.5
T 2025 Mar. 10.27849 TT                                 Pike
q   1.6210430            (2000.0)            P               Q
n   0.06541706     Peri.   42.24557     -0.25280933     -0.94002528
a   6.1001715      Node    63.58685     +0.80517644     -0.33564559
e   0.7342627      Incl.   14.81442     +0.53644976     +0.06078252
P  15.1
From 1143 observations 2009 Oct. 14-2025 Feb. 27, mean residual 0".5.

* Finding Charts

* Magnitudes Graph

        m1 = 10.0 + 5 log d + 20.0 log r(t - 30)

---------------------------------------------------------------------

The orbital elements are published on M.P.E.C. 2025-D254.
The charts are made with StellaNavigator Ver.11 (AstroArts).
The magnitudes graphs are made with Comet for Windows.

---------------------------------------------------------------------

Copyright(C) Seiichi Yoshida (comet@aerith.net). All rights reserved.